(203014) = 1999 XC233

Discovered at Anderson Mesa on 1999-12-02 by LONEOS.

Orbit

Orbit type: Main Belt

Note: WebGL enabled browser required.

epoch2024-03-31.0
epoch JD2460400.5
perihelion date2021-06-13.46108
perihelion JD2459378.96108
argument of perihelion (°)266.14825
ascending node (°)77.40718
inclination (°)11.65196
eccentricity0.2548480
perihelion distance (AU)2.0090864
Tisserand w.r.t. Jupiter3.3
ΔV w.r.t. Earth (km/sec)9.6
semimajor axis (AU)2.6962103
mean anomaly (°)227.41972
mean daily motion (°/day)0.22262460
aphelion distance (AU)3.383
period (years)4.43
P-vector [x]0.93902774
P-vector [y]-0.17545883
P-vector [z]-0.29570443
Q-vector [x]0.28173650
Q-vector [y]0.88562520
Q-vector [z]0.36917820
absolute magnitude15.59
phase slope0.15
uncertainty0
referenceMPEC 2024-E190
observations used743
oppositions16
arc length (days)8897
first opposition used1999
last opposition used2024
residual rms (arc-secs)0.62
perturbers coarse indicatorM-v
perturbers precise indicator003Ek
first observation date used1999-10-10.0
last observation date used2024-02-18.0
computer nameMPCLINUX
JD of orbit computation2456670.893964
perihelion JD uncertainty (days)5.9433E-05
argument of perihelion uncertainty (°)3.1488E-05
ascending node uncertainty (°)2.7588E-05
inclination uncertainty (°)7.5402E-06
eccentricity uncertainty 6.5469E-08
perihelion distance uncertainty (AU)1.8204E-07
Minimum Orbit Intersection Distances (in AU)
for orbit epoch: 2460400.5, reference: E2024-GH2
Mercury1.61906
Venus1.29329
Earth1.04157
Mars0.68982
Jupiter2.15672
Saturn5.97834
Uranus15.13
Neptune27.1003

Observations

752 total observations over interval: 1999 10 10.34117 – 2024 02 18.600321
These data are available for download (format description).

Date (UT) J2000 RA J2000 Dec Magn Location Ref
1999 10 10.34117 04 14 05.68 +10 59 16.7 19.0   704 – Lincoln Laboratory ETS, New Mexico MPS 20887
1999 10 10.35693 04 14 05.37 +10 59 17.2 19.6   704 – Lincoln Laboratory ETS, New Mexico MPS 20887
1999 10 10.37255 04 14 05.07 +10 59 18.3 19.8   704 – Lincoln Laboratory ETS, New Mexico MPS 20887
1999 10 10.40398 04 14 04.47 +10 59 20.7 19.9   704 – Lincoln Laboratory ETS, New Mexico MPS 20887
1999 10 20.32350 04 09 53.86 +11 10 02.8 19.0   704 – Lincoln Laboratory ETS, New Mexico MPS 20887
1999 10 20.33877 04 09 53.35 +11 10 03.7 19.1   704 – Lincoln Laboratory ETS, New Mexico MPS 20887
1999 10 20.35404 04 09 52.76 +11 10 05.5 19.1   704 – Lincoln Laboratory ETS, New Mexico MPS 20887
1999 10 20.36942 04 09 52.11 +11 10 06.2 18.9   704 – Lincoln Laboratory ETS, New Mexico MPS 20887
1999 10 20.38473 04 09 51.54 +11 10 08.6 18.9   704 – Lincoln Laboratory ETS, New Mexico MPS 20887
1999 11 05.32820 03 56 59.05 +11 32 09.1 18.6   704 – Lincoln Laboratory ETS, New Mexico MPS 20887
1999 11 05.34489 03 56 58.07 +11 32 12.1 19.0   704 – Lincoln Laboratory ETS, New Mexico MPS 20887
1999 11 05.36156 03 56 57.03 +11 32 12.5 18.9   704 – Lincoln Laboratory ETS, New Mexico MPS 20887
1999 11 05.37823 03 56 56.03 +11 32 14.6 19.0   704 – Lincoln Laboratory ETS, New Mexico MPS 20887
1999 11 05.39493 03 56 54.90 +11 32 15.7 19.2   704 – Lincoln Laboratory ETS, New Mexico MPS 20887
1999 11 12.31735 03 49 43.02 +11 45 09.9 18.8 R 699 – Lowell Observatory-LONEOS MPS 20887
1999 11 12.34793 03 49 40.97 +11 45 13.7   699 – Lowell Observatory-LONEOS MPS 20887
1999 11 12.37852 03 49 39.03 +11 45 18.2   699 – Lowell Observatory-LONEOS MPS 20887
1999 12 02.24619 03 28 46.47 +12 38 54.6 18.9 R 699 – Lowell Observatory-LONEOS MPS 15643
1999 12 02.27674 03 28 44.66 +12 39 00.3   699 – Lowell Observatory-LONEOS MPS 15643
1999 12 02.30729 03 28 42.86 +12 39 06.2   699 – Lowell Observatory-LONEOS MPS 15644
1999 12 04.31119 03 26 52.89 +12 46 02.7 18.3 R 703 – Catalina Sky Survey MPS 15644
1999 12 04.33125 03 26 51.77 +12 46 06.9 18.6 R 703 – Catalina Sky Survey MPS 15644
1999 12 04.34344 03 26 51.20 +12 46 10.1 19.1 R 703 – Catalina Sky Survey MPS 15644
1999 12 04.35552 03 26 50.41 +12 46 12.4 18.7 R 703 – Catalina Sky Survey MPS 15644
1999 12 06.21929 03 25 13.20 +12 52 56.1 18.3   704 – Lincoln Laboratory ETS, New Mexico MPS 16701
1999 12 06.23371 03 25 12.43 +12 52 57.9 19.1   704 – Lincoln Laboratory ETS, New Mexico MPS 16701
1999 12 06.24806 03 25 11.59 +12 53 02.2 18.3   704 – Lincoln Laboratory ETS, New Mexico MPS 16701
1999 12 06.26247 03 25 10.90 +12 53 05.6 18.6   704 – Lincoln Laboratory ETS, New Mexico MPS 16701
1999 12 06.27689 03 25 10.11 +12 53 08.9 18.3   704 – Lincoln Laboratory ETS, New Mexico MPS 16701
2002 04 12.33339 13 51 49.27 +03 18 35.7 19.6   644 – Palomar Mountain/NEAT MPS 133066
2002 04 12.35896 13 51 47.87 +03 18 41.8 19.9   644 – Palomar Mountain/NEAT MPS 133066
2002 04 12.38407 13 51 46.55 +03 18 47.3 19.8   644 – Palomar Mountain/NEAT MPS 133066
2003 09 26.17228 22 20 28.31 -32 29 32.4 18.0   644 – Palomar Mountain/NEAT MPS 133066
2003 09 26.18365 22 20 28.07 -32 29 29.1 17.6   644 – Palomar Mountain/NEAT MPS 133066
2003 09 26.19531 22 20 27.82 -32 29 26.0 17.6   644 – Palomar Mountain/NEAT MPS 133066
2003 11 21.08362 22 50 53.96 -22 10 03.9 19.8 V 291 – LPL/Spacewatch II MPS 133066
2003 11 21.08809 22 50 54.26 -22 10 00.1 19.7 V 291 – LPL/Spacewatch II MPS 133066
2003 11 21.09230 22 50 54.57 -22 09 56.4 19.7 V 291 – LPL/Spacewatch II MPS 133066
2005 01 06.28618 07 58 35.99 +30 45 53.0 19.3 R 703 – Catalina Sky Survey MPS 133066
2005 01 06.29266 07 58 35.63 +30 45 53.7 19.7 R 703 – Catalina Sky Survey MPS 133066
2005 01 06.29913 07 58 35.14 +30 45 57.5 19.2 R 703 – Catalina Sky Survey MPS 133066
2005 01 06.30556 07 58 34.76 +30 45 57.8 19.1 R 703 – Catalina Sky Survey MPS 133066
2005 01 06.36645 07 58 30.86 +30 46 19.6 18.1 R 703 – Catalina Sky Survey MPS 133066
2005 01 06.37025 07 58 30.56 +30 46 21.2 19.9 R 703 – Catalina Sky Survey MPS 133066
2005 01 06.37406 07 58 30.34 +30 46 21.9 18.9 R 703 – Catalina Sky Survey MPS 133066
2005 01 06.37784 07 58 30.11 +30 46 24.5 19.0 R 703 – Catalina Sky Survey MPS 133066
2008 11 05.38110 05 23 08.44 +19 46 06.6 19.4 V 703 – Catalina Sky Survey MPS 262990
2008 11 05.38707 05 23 08.16 +19 46 08.2 19.2 V 703 – Catalina Sky Survey MPS 262990
2008 11 05.39317 05 23 08.01 +19 46 09.3 19.1 V 703 – Catalina Sky Survey MPS 262990
2008 11 05.39922 05 23 07.69 +19 46 11.6 18.8 V 703 – Catalina Sky Survey MPS 262990
2008 11 18.32659 05 12 49.28 +20 30 23.3 19.3 V 691 – Steward Observatory, Kitt Peak-Spacewatch MPS 265123
2008 11 18.34421 05 12 48.21 +20 30 27.0 19.2 V 691 – Steward Observatory, Kitt Peak-Spacewatch MPS 265123
2008 11 18.36185 05 12 47.22 +20 30 31.0 18.9 V 691 – Steward Observatory, Kitt Peak-Spacewatch MPS 265123
2008 11 19.38835 05 11 47.51 +20 34 02.2 19.2   704 – Lincoln Laboratory ETS, New Mexico MPS 265123
2008 11 19.40088 05 11 46.68 +20 34 04.3 19.1   704 – Lincoln Laboratory ETS, New Mexico MPS 265123
2008 11 19.41345 05 11 45.95 +20 34 08.0 19.2   704 – Lincoln Laboratory ETS, New Mexico MPS 265123
2008 11 19.42583 05 11 45.25 +20 34 10.4 19.2   704 – Lincoln Laboratory ETS, New Mexico MPS 265123
2008 11 19.43822 05 11 44.43 +20 34 13.2 19.2   704 – Lincoln Laboratory ETS, New Mexico MPS 265123
2008 11 22.08388 05 09 04.73 +20 43 15.3 18.8 V J75 – OAM Observatory, La Sagra MPS 266357
2008 11 22.09716 05 09 03.93 +20 43 17.6 18.4 V J75 – OAM Observatory, La Sagra MPS 266357
2008 11 22.11053 05 09 03.06 +20 43 20.1 18.3 V J75 – OAM Observatory, La Sagra MPS 266357
2008 11 22.20536 05 08 57.55 +20 43 39.9   691 – Steward Observatory, Kitt Peak-Spacewatch MPS 266357
2008 11 22.22302 05 08 56.42 +20 43 43.9   691 – Steward Observatory, Kitt Peak-Spacewatch MPS 266357
2008 11 22.24069 05 08 55.26 +20 43 47.2   691 – Steward Observatory, Kitt Peak-Spacewatch MPS 266357
2008 11 23.08396 05 08 02.41 +20 46 38.7 18.5 V J75 – OAM Observatory, La Sagra MPS 266357
2008 11 23.09731 05 08 01.61 +20 46 41.9 18.7 V J75 – OAM Observatory, La Sagra MPS 266357
2008 11 23.11065 05 08 00.69 +20 46 44.2 18.7 V J75 – OAM Observatory, La Sagra MPS 266357
2008 11 24.09497 05 06 58.51 +20 50 04.7 19.0 V J75 – OAM Observatory, La Sagra MPS 266357
2008 11 24.10819 05 06 57.62 +20 50 07.0 19.2 V J75 – OAM Observatory, La Sagra MPS 266357
2008 11 24.12148 05 06 56.78 +20 50 09.8 18.7 V J75 – OAM Observatory, La Sagra MPS 266357
2008 11 24.26074 05 06 48.21 +20 50 39.6 19.0   704 – Lincoln Laboratory ETS, New Mexico MPS 266357
2008 11 24.27328 05 06 47.38 +20 50 42.3 19.3   704 – Lincoln Laboratory ETS, New Mexico MPS 266357
2008 11 24.28582 05 06 46.56 +20 50 44.6 19.5   704 – Lincoln Laboratory ETS, New Mexico MPS 266357
2008 11 24.29852 05 06 45.73 +20 50 47.0 19.3   704 – Lincoln Laboratory ETS, New Mexico MPS 266357
2008 11 24.31151 05 06 44.85 +20 50 50.2 19.4   704 – Lincoln Laboratory ETS, New Mexico MPS 266357
2008 12 01.26143 04 59 05.61 +21 13 50.1 18.6   704 – Lincoln Laboratory ETS, New Mexico MPS 267363
2008 12 01.27405 04 59 04.75 +21 13 52.8 19.0   704 – Lincoln Laboratory ETS, New Mexico MPS 267363
2008 12 01.28671 04 59 03.85 +21 13 54.9 18.8   704 – Lincoln Laboratory ETS, New Mexico MPS 267363
2008 12 01.29934 04 59 02.94 +21 13 57.6 19.1   704 – Lincoln Laboratory ETS, New Mexico MPS 267363
2008 12 01.31200 04 59 02.08 +21 14 00.1 19.1   704 – Lincoln Laboratory ETS, New Mexico MPS 267363
2008 12 06.23027 04 53 28.53 +21 29 35.3 18.1 V 703 – Catalina Sky Survey MPS 268762
2008 12 06.23568 04 53 28.14 +21 29 36.0 18.2 V 703 – Catalina Sky Survey MPS 268762
2008 12 06.24121 04 53 27.74 +21 29 36.1 18.1 V 703 – Catalina Sky Survey MPS 268762
2008 12 06.24672 04 53 27.38 +21 29 38.0 18.4 V 703 – Catalina Sky Survey MPS 268762
2008 12 21.34108 04 37 32.30 +22 13 20.4 18.6 V G96 – Mt. Lemmon Survey MPS 269175
2008 12 21.34623 04 37 32.01 +22 13 21.2 18.7 V G96 – Mt. Lemmon Survey MPS 269175
2008 12 21.35112 04 37 31.72 +22 13 22.0 18.6 V G96 – Mt. Lemmon Survey MPS 269175
2008 12 21.35619 04 37 31.44 +22 13 22.8 18.6 V G96 – Mt. Lemmon Survey MPS 269175
